Regional Weather Roundup
Issued by NWS Northern Indiana

Home | Current Version | Previous Version | Text Only | Print | Product List | Glossary Off
Versions: 1 2 3 4 5 6 7 8 9 10 11 12 13 14 15 16 17 18 19 20 21 22 23 24 25 26 27 28 29 30 31 32 33 34 35 36 37 38 39 40 41 42 43 44 45 46 47 48 49 50

000
ASUS43 KIWX 231410
RWRIWX

KIWX WEATHER ROUNDUP
NATIONAL WEATHER SERVICE NORTHERN INDIANA
1000 AM EDT TUE MAY 23 2017

NOTE: "FAIR" INDICATES FEW OR NO CLOUDS BELOW 12,000 FEET WITH NO
SIGNIFICANT WEATHER AND/OR OBSTRUCTIONS TO VISIBILITY.

* THESE STATIONS ARE NOT UNDER NWS QUALITY CONTROL. THEY ALSO MAY NOT
  REPORT WEATHER SUCH AS PRECIPITATION OR FOG.

INZ001>027-231500-
NORTHERN INDIANA

CITY           SKY/WX    TMP DP  RH WIND       PRES   REMARKS
GARY*          LGT RAIN  61  54  77 SW10      29.84S
VALPARAISO     CLOUDY    64  55  72 SW8       29.84S
MICHIGAN CITY* PTSUNNY   61  52  72 S3        29.84S
LAPORTE*       PTSUNNY   61  54  78 CALM      29.84S
KNOX*          PTSUNNY   61  46  59 SE7       29.83F
SOUTH BEND     LGT RAIN  60  55  83 S5        29.85F
ELKHART*       LGT RAIN  63  54  72 CALM      29.85S
GOSHEN         CLOUDY    64  50  60 S6        29.85F
MONTICELLO*    CLOUDY    63  53  70 SE5       29.84F
LOGANSPORT*    CLOUDY    63  50  63 SE5       29.85F
ROCHESTER*     MOSUNNY   64  52  63 CALM      29.85F
WARSAW*        MOSUNNY   63  52  67 SE3       29.85F
ANGOLA*        PTSUNNY   64  55  72 SW5       29.86F
FORT WAYNE     CLOUDY    65  51  60 S5        29.87F
HUNTINGTON*    CLOUDY    61  51  68 S3        29.85F
PERU/GRISSOM   CLOUDY    63  51  63 S3        29.83F
MARION*        PTSUNNY   63  48  59 SW3       29.86F

$$
INZ028>050-231500-
CENTRAL INDIANA

CITY           SKY/WX    TMP DP  RH WIND       PRES   REMARKS
LAFAYETTE      CLOUDY    62  53  72 CALM      29.83F
KOKOMO*        CLOUDY    61  51  70 CALM      29.86F
MUNCIE*        MOSUNNY   66  46  48 SE10      29.85F
INDIANAPOLIS   CLOUDY    63  50  62 SE9       29.84F

$$
MIZ043>046-050>051-056>058-064>065-071>073-077>080-231500-
SOUTHWEST LOWER MICHIGAN

CITY           SKY/WX    TMP DP  RH WIND       PRES   REMARKS
BATTLE CREEK   CLOUDY    61  54  77 SW8       29.86S
BENTON HARBOR  CLOUDY    64  51  62 SW9       29.83S
COLDWATER*     CLOUDY    63  55  74 S3        29.86S
HILLSDALE*     CLOUDY    63  52  67 S5        29.87S
HOLLAND        PTSUNNY   64  52  64 SW17      29.83S
GRAND RAPIDS   CLOUDY    64  54  69 SW10      29.82F
KALAMAZOO      CLOUDY    62  52  69 SW6       29.85S
STURGIS*       PTSUNNY   61  53  75 S8        29.85F
THREE RIVERS*  LGT RAIN  62  53  72 SW6       29.85F

$$
OHZ001>008-015>018-024>025-231500-
NORTHWEST OHIO

CITY           SKY/WX    TMP DP  RH WIND       PRES   REMARKS
WAUSEON*       PTSUNNY   64  50  59 SW6       29.88F
DEFIANCE       CLOUDY    62  48  60 S5        29.88S
FINDLAY        MOSUNNY   65  49  56 SE8       29.87F
TOLEDO EXPRESS PTSUNNY   64  50  60 W5        29.88S
TOLEDO METCALF CLOUDY    66  51  58 SW7       29.89F
LIMA           PTSUNNY   65  51  60 SE6       29.87F

$$
AND FOR LAKE MICHIGAN COASTAL AND OPEN LAKE BUOY OBSERVATIONS

STATION/POSITION TEMP    WIND        PRES    VSBY  WAVE
                 AIR SEA DIR/SP/G                  HT/PER
                 (F)     (DEG/KT/KT) (MB)    (MI)  (FT/S)
CALUMET HARBOR    60     220/  6/ 12 1009.7R
MICHIGAN CITY     61     160/  4/  5   N/A
BURNS HARBOR      61     210/  8/ 11 1010.5S
SOUTH LAKE BUOY   48 45  170/  6/  8 1009.8          1
4 MI NW BRIDGMAN  59 55  210/  8/ 10 1010.4          1/ 3
MICHIGAN CITY     56 53  230/  6/  6   N/A           1

$$
&&



USA.gov is the U.S. government's official web portal to all federal, state and local government web resources and services.